Twentynine Palms, CA

6:41 PM PST on November 21, 2017 (GMT -0800)
Twentynine Palms Expeditionary Air Field

Weather History for KNXP - June, 2013

Change the Weather History Date:

Thursday, June 27, 2013

  Actual Average Record
Temperature  
Mean Temperature 92 °F -  
Max Temperature 107 °F 98 °F 108 °F (2017)
Min Temperature 78 °F 72 °F 63 °F (2005)
Cooling Degree Days 26    
Growing Degree Days 42 (Base 50)    
Moisture  
Dew Point 49 °F    
Average Humidity 23    
Maximum Humidity 40    
Minimum Humidity 13    
Precipitation  
Precipitation 0.00 in - - ()
Sea Level Pressure  
Sea Level Pressure 29.94 in    
Wind  
Wind Speed 9 mph (West)    
Max Wind Speed 17 mph    
Max Gust Speed -    
Visibility 10 miles    
Events      
Averages and records for this station are not official NWS values.
T = Trace of Precipitation, MM = Missing Value Source: NWS Daily Summary

Daily Weather History Graph

Daily Weather History Graph

Search for Another Location

Airport or City:

Trip Planner

Search our weather history database for the weather conditions in past years. The results will help you decide how hot, cold, wet, or windy it might be!

Date:

Astronomy

Jun. 27, 2013 Rise Set
Actual Time 5:34 AM PDT 8:00 PM PDT
Civil Twilight 5:05 AM PDT 8:30 PM PDT
Nautical Twilight 4:29 AM PDT 9:06 PM PDT
Astronomical Twilight 3:49 AM PDT 9:45 PM PDT
Moon 11:15 PM PDT (6/27) 10:27 AM PDT (6/27)
Length of Visible Light 15h 24m
Length of Day
14h 25m
Waning Gibbous, 75% of the Moon is Illuminated
Jun 27
Waning Gibbous
Jun 29
Last Quarter
Jul 8
New
Jul 15
First Quarter
Jul 22
Full

Hourly Weather History & Observations

Time (PDT) Temp. Heat Index Dew Point Humidity Pressure Visibility Wind Dir Wind Speed Gust Speed Precip Events Conditions
12:56 AM 88.0 °F 85.9 °F 54.0 °F 31% 29.92 in 10.0 mi WSW 15.0 mph - N/A   Clear
1:56 AM 86.0 °F 84.5 °F 55.0 °F 35% 29.93 in 10.0 mi West 17.3 mph - N/A   Clear
2:56 AM 84.9 °F 83.6 °F 55.0 °F 36% 29.93 in 10.0 mi WSW 16.1 mph - N/A   Clear
3:56 AM 81.0 °F 80.4 °F 53.1 °F 38% 29.94 in 10.0 mi North 3.5 mph - N/A   Clear
4:56 AM 79.0 °F - 53.1 °F 40% 29.95 in 10.0 mi West 5.8 mph - N/A   Clear
5:56 AM 78.1 °F - 52.0 °F 40% 29.97 in 10.0 mi North 4.6 mph - N/A   Clear
6:56 AM 80.1 °F - 48.9 °F 34% 29.98 in 7.0 mi North 4.6 mph - N/A   Clear
7:56 AM 84.9 °F - 48.9 °F 29% 30.00 in 10.0 mi North 4.6 mph - N/A   Partly Cloudy
8:56 AM 89.1 °F - 48.0 °F 24% 30.00 in 10.0 mi NW 4.6 mph - N/A   Clear
9:56 AM 93.9 °F - 46.9 °F 20% 29.99 in 10.0 mi NW 4.6 mph - N/A   Clear
10:56 AM 97.0 °F - 48.9 °F 19% 29.99 in 10.0 mi East 5.8 mph - N/A   Clear
11:56 AM 100.0 °F - 48.0 °F 17% 29.98 in 10.0 mi Calm Calm - N/A   Clear
12:56 PM 102.9 °F - 48.0 °F 16% 29.96 in 10.0 mi SE 10.4 mph - N/A   Clear
1:56 PM 102.9 °F - 46.9 °F 15% 29.94 in 10.0 mi Variable 5.8 mph - N/A   Partly Cloudy
2:56 PM 104.0 °F - 46.9 °F 15% 29.92 in 10.0 mi SSE 6.9 mph - N/A   Partly Cloudy
3:56 PM 105.1 °F - 46.0 °F 14% 29.91 in 10.0 mi ESE 6.9 mph - N/A   Partly Cloudy
4:56 PM 105.1 °F - 46.0 °F 14% 29.89 in 10.0 mi Variable 4.6 mph - N/A   Clear
5:56 PM 105.1 °F - 45.0 °F 13% 29.88 in 10.0 mi Calm Calm - N/A   Clear
6:56 PM 102.9 °F - 46.9 °F 15% 29.88 in 10.0 mi SSW 10.4 mph - N/A   Clear
7:56 PM 100.0 °F - 46.9 °F 16% 29.88 in 10.0 mi SW 13.8 mph - N/A   Clear
8:56 PM 97.0 °F - 48.9 °F 19% 29.89 in 10.0 mi SW 11.5 mph - N/A   Clear
9:56 PM 95.0 °F - 51.1 °F 22% 29.91 in 10.0 mi WSW 11.5 mph - N/A   Clear
10:56 PM 93.0 °F - 48.0 °F 21% 29.92 in 10.0 mi WNW 9.2 mph - N/A   Clear
11:56 PM 91.9 °F - 39.9 °F 16% 29.92 in 10.0 mi WNW 5.8 mph - N/A   Clear